Regional Weather Roundup
Issued by NWS

Home | Current Version | Previous Version | Graphics & Text | Print | Product List | Glossary On
Versions: 1 2 3 4 5 6 7 8 9 10 11 12 13 14 15 16 17 18 19 20 21 22 23 24 25 26 27 28 29 30 31 32 33 34 35 36 37 38 39 40 41 42 43 44 45 46 47 48 49 50
279
ASUS45 KABQ 250310
RWRNM
NEW MEXICO REGIONAL WEATHER ROUNDUP
NATIONAL WEATHER SERVICE ALBUQUERQUE NM
900 PM MDT TUE APR 24 2018

NOTE: "FAIR" MEANS FEW OR NO CLOUDS BELOW 12,000 FEET AGL WITH NO
       SIGNIFICANT WEATHER OR OBSTRUCTIONS TO VISION.

      THIS PRODUCT IS RELEASED AS TWO VERSIONS.  ONE VERSION NEAR
      THE TOP OF THE HOUR CONTAINING PRELIMINARY DATA FROM ALBUQUERQUE
      AND OTHER STATIONS.  A FINAL VERSION WITH ADDITIONAL DATA IS
      ISSUED ABOUT 10 MINUTES AFTER THE HOUR.

NMZ501-503-504-510>518-250400-
NORTHWEST PLATEAU/NORTHCENTRAL MOUNTAINS

CITY           SKY/WX    TMP DP  RH WIND       PRES   REMARKS
FARMINGTON     FAIR      63  23  21 N8        30.07R
LOS ALAMOS     FAIR      57  32  39 S12G21    30.21R
SANTA FE       FAIR      54  38  54 SE23G32   30.14R
ANGEL FIRE     CLOUDY    39  30  70 NE10      30.29R WCI  32

$$
NMZ402-403-502-505>509-250400-
WESTCENTRAL MOUNTAINS/SOUTHWEST MOUNTAINS

CITY           SKY/WX    TMP DP  RH WIND       PRES   REMARKS
GALLUP         FAIR      57   8  14 S3        30.14R
GRANTS         FAIR      64   8  11 W13       30.14S
SILVER CITY    FAIR      61  11  14 NW9       30.10S

$$
NMZ407-409-411-412-250400-
SOUTHERN DESERTS

CITY           SKY/WX    TMP DP  RH WIND       PRES   REMARKS
DEMING         FAIR      74  20  13 W6        30.02R
LAS CRUCES     FAIR      74  14  10 W7        30.03R
ALAMOGORDO     FAIR      70  18  13 S6        30.01R
T OR C         FAIR      77   2   5 SW8       30.01R

$$
NMZ519>523-250400-
CENTRAL VALLEYS/CENTRAL HIGHLANDS

CITY           SKY/WX    TMP DP  RH WIND       PRES   REMARKS
ALBUQUERQUE    MOCLDY    63  37  38 E26G40    30.07R
DOUBLE EAGLE   MOCLDY    63  36  36 E24G30    30.11R
MORIARTY ARPT  FAIR      52  40  62 E16G25    30.23R
CLINES CORNERS FAIR      44  35  70 E22G33    30.26R
BELEN          FAIR      71  27  19 SE10      30.05R
SOCORRO        FAIR      77  15   9 SE12      30.00R

$$
NMZ524>526-539-540-250400-
SOUTHCENTRAL MOUNTAINS

CITY           SKY/WX    TMP DP  RH WIND       PRES   REMARKS
RUIDOSO        FAIR      55  36  47 S6        30.26R

$$
NMZ527>531-250400-
NORTHEAST HIGHLANDS/NORTHEAST PLAINS

CITY           SKY/WX    TMP DP  RH WIND       PRES   REMARKS
LAS VEGAS      FAIR      39  29  67 NE17      30.29R WCI  30
RATON          CLOUDY    37  28  70 N18       30.32S WCI  27
CLAYTON        CLOUDY    41  32  70 N26G38    30.30R

$$
NMZ532>537-250400-
EASTCENTRAL PLAINS

CITY           SKY/WX    TMP DP  RH WIND       PRES   REMARKS
SANTA ROSA     FAIR      46  35  65 NE21G29   30.24R
TUCUMCARI      CLOUDY    48  34  58 NE23G29   30.26R
CANNON AFB     NOT AVBL
CLOVIS AIRPORT MOCLDY    43  35  73 N38G46    30.22R

$$
NMZ028-029-538-250400-
SOUTHEAST PLAINS

CITY           SKY/WX    TMP DP  RH WIND       PRES   REMARKS
ROSWELL        FAIR      61  42  49 NE28G33   30.10R
ARTESIA        FAIR      68  45  42 NE25G35   30.07R
CARLSBAD       FAIR      76  32  20 NW8       29.95R
HOBBS          CLOUDY    64  41  42 NE28G38   30.07R


$$




USA.gov is the U.S. government's official web portal to all federal, state and local government web resources and services.